Fort Indiantown Gap, PA

1:11 PM EDT on June 29, 2017 (GMT -0400)
Muir Army Air Field

Weather History for KMUI - March, 2013

Change the Weather History Date:

Friday, March 29, 2013

  Actual Average Record
Temperature  
Mean Temperature 46 °F -  
Max Temperature 53 °F 53 °F 64 °F (1999)
Min Temperature 40 °F 36 °F 22 °F (2015)
Degree Days  
Heating Degree Days 19    
Moisture  
Dew Point 26 °F    
Average Humidity 47    
Maximum Humidity 60    
Minimum Humidity 32    
Precipitation  
Precipitation 0.00 in - - ()
Sea Level Pressure  
Sea Level Pressure 30.19 in    
Wind  
Wind Speed 8 mph (WNW)    
Max Wind Speed 16 mph    
Max Gust Speed 36 mph    
Visibility 10 miles    
Events      
Averages and records for this station are not official NWS values.
T = Trace of Precipitation, MM = Missing Value Source: NWS Daily Summary

Daily Weather History Graph

Daily Weather History Graph

Search for Another Location

Airport or City:

Trip Planner

Search our weather history database for the weather conditions in past years. The results will help you decide how hot, cold, wet, or windy it might be!

Date:

Astronomy

Mar. 29, 2013 Rise Set
Actual Time 6:54 AM EDT 7:27 PM EDT
Civil Twilight 6:27 AM EDT 7:55 PM EDT
Nautical Twilight 5:54 AM EDT 8:27 PM EDT
Astronomical Twilight 5:21 AM EDT 9:01 PM EDT
Moon 10:26 PM EDT 8:01 AM EDT
Length of Visible Light 13h 28m
Length of Day
12h 33m
Waning Gibbous, 93% of the Moon is Illuminated
Mar 29
Waning Gibbous
Apr 3
Last Quarter
Apr 10
New
Apr 18
First Quarter
Apr 25
Full

Hourly Weather History & Observations

Time (EDT) Temp. Windchill Dew Point Humidity Pressure Visibility Wind Dir Wind Speed Gust Speed Precip Events Conditions
12:55 AM 42.8 °F 39.3 °F 21.9 °F 44% 30.21 in 10.0 mi WNW 5.8 mph - N/A   Overcast
1:55 AM 42.6 °F 39.0 °F 21.4 °F 43% 30.22 in 10.0 mi West 5.8 mph - N/A   Overcast
2:55 AM 41.7 °F 36.7 °F 26.2 °F 54% 30.22 in 10.0 mi West 8.1 mph - N/A   Overcast
3:55 AM 41.0 °F 35.2 °F 28.2 °F 60% 30.21 in 10.0 mi West 9.2 mph - N/A   Overcast
4:55 AM 40.6 °F 35.4 °F 27.9 °F 60% 30.21 in 10.0 mi West 8.1 mph - N/A   Overcast
5:40 AM 41.0 °F 37.1 °F 26.6 °F 57% 30.21 in 10.0 mi West 5.8 mph - N/A   Light Drizzle
5:55 AM 40.5 °F 34.6 °F 27.0 °F 59% 30.21 in 10.0 mi West 9.2 mph - 0.00 in   Light Drizzle
6:55 AM 40.3 °F 36.3 °F 27.5 °F 60% 30.21 in 10.0 mi Variable 5.8 mph - 0.00 in   Overcast
7:55 AM 40.3 °F 34.9 °F 27.0 °F 59% 30.22 in 10.0 mi WNW 8.1 mph - N/A   Clear
8:55 AM 42.3 °F 37.9 °F 28.4 °F 58% 30.22 in 10.0 mi West 6.9 mph - N/A   Clear
9:55 AM 44.8 °F 40.4 °F 27.1 °F 50% 30.22 in 10.0 mi WNW 8.1 mph - N/A   Mostly Cloudy
10:55 AM 47.3 °F - 27.5 °F 46% 30.21 in 10.0 mi West 10.4 mph - N/A   Overcast
11:55 AM 48.2 °F - 28.9 °F 47% 30.20 in 10.0 mi NW 10.4 mph - N/A   Overcast
12:55 PM 50.7 °F - 29.7 °F 44% 30.18 in 10.0 mi WNW 10.4 mph - N/A   Overcast
1:55 PM 51.6 °F - 26.2 °F 37% 30.16 in 10.0 mi NW 8.1 mph 35.7 mph N/A   Scattered Clouds
2:55 PM 51.8 °F - 24.4 °F 34% 30.14 in 10.0 mi NW 8.1 mph 20.7 mph N/A   Overcast
3:55 PM 52.2 °F - 23.0 °F 32% 30.13 in 10.0 mi West 16.1 mph 25.3 mph N/A   Mostly Cloudy
4:55 PM 52.0 °F - 23.2 °F 33% 30.12 in 10.0 mi NW 12.7 mph 18.4 mph N/A   Mostly Cloudy
5:55 PM 52.0 °F - 22.8 °F 32% 30.13 in 10.0 mi WNW 11.5 mph - N/A   Mostly Cloudy
6:55 PM 49.8 °F - 24.4 °F 37% 30.15 in 10.0 mi NW 10.4 mph - N/A   Mostly Cloudy
7:55 PM 47.8 °F - 26.8 °F 44% 30.16 in 10.0 mi WNW 5.8 mph - N/A   Mostly Cloudy
8:55 PM 46.6 °F - 26.4 °F 45% 30.17 in 10.0 mi Variable 4.6 mph - N/A   Mostly Cloudy
9:55 PM 46.2 °F 41.2 °F 27.0 °F 47% 30.18 in 10.0 mi West 10.4 mph - N/A   Clear
10:55 PM 45.1 °F 42.0 °F 27.0 °F 49% 30.18 in 10.0 mi West 5.8 mph - N/A   Partly Cloudy
11:55 PM 45.1 °F 42.0 °F 25.3 °F 46% 30.18 in 10.0 mi West 5.8 mph - N/A   Clear